Wind_Speed
52 51 50 50 48 44 39 37 33 34 39 39 38 37 34 33 31 29 28 24 19 13 16 17 16 18 16 8 4 7 17 28 38 26 26 28 27 24 18 17 21 23 30
43 44 45 42 37 35 31 30 33 37 38 37 37 34 32 29 26 25 20 12 13 14 19 16 14 16 12 6 11 12 11 21 33 26 30 31 25 23 21 18 18 20 30
39 39 35 31 32 28 29 32 35 36 36 37 35 32 29 24 22 17 11 12 14 18 14 14 12 14 10 6 10 20 20 22 31 30 33 35 29 24 20 18 17 20 28
31 28 27 30 28 27 29 33 34 35 35 33 30 27 20 19 16 8 10 11 11 14 13 14 11 13 10 8 13 19 22 23 26 29 36 34 31 23 20 17 19 23 28
24 24 24 26 25 26 29 31 34 31 28 24 22 18 16 13 11 8 9 10 10 14 13 12 12 12 13 13 14 18 24 25 26 22 30 34 27 21 17 18 23 28 28
23 20 21 20 21 27 28 31 28 24 21 21 18 16 11 12 9 10 14 12 8 8 12 11 6 7 10 12 17 23 27 33 26 22 28 28 24 19 21 25 29 31 31
18 15 17 20 23 23 27 26 23 20 18 15 15 9 9 9 7 2 5 7 6 8 9 10 9 3 4 6 12 25 31 28 25 24 28 27 26 26 24 29 33 31 27
12 14 18 21 19 22 23 21 19 16 11 11 6 7 12 12 8 3 2 3 7 13 14 15 13 10 10 10 13 19 22 25 27 29 30 35 32 27 29 31 35 27 25
16 16 18 19 20 20 19 18 14 11 10 8 6 12 16 16 12 9 4 8 15 17 16 19 20 20 22 28 31 30 31 31 32 39 41 35 33 34 31 29 27 24 18
15 16 18 18 18 17 17 13 10 11 10 11 13 15 20 20 17 13 11 13 18 17 25 22 21 26 30 30 34 35 33 35 38 39 37 34 32 30 27 25 27 29 26
11 15 16 18 15 14 10 7 10 10 13 13 17 22 22 24 22 18 17 16 14 23 34 35 37 39 39 37 36 35 37 37 35 33 32 31 35 35 33 28 26 24 19
10 14 16 15 11 7 4 8 10 13 17 19 25 26 27 27 21 21 20 15 20 32 36 36 36 33 34 35 35 36 34 33 31 30 29 27 24 24 21 17 15 13 9
10 14 13 11 7 3 5 5 7 18 24 23 26 29 29 28 27 21 12 21 28 32 29 30 29 29 28 30 30 28 26 23 22 20 20 16 16 15 12 11 10 11 12
11 11 11 8 7 5 7 8 13 14 25 25 29 29 29 28 24 23 24 23 25 25 25 26 25 22 22 20 21 21 18 13 11 9 7 5 5 3 5 5 7 13 13
9 10 9 7 9 11 13 15 19 21 29 26 30 30 26 24 22 25 25 25 21 21 19 20 19 20 20 14 15 14 15 12 8 6 6 5 8 10 13 12 8 12 9
8 8 8 7 10 15 19 23 24 25 31 30 28 34 28 25 26 20 24 20 20 20 17 15 19 20 20 19 16 8 7 5 5 6 7 9 8 9 12 17 15 13 12
8 6 7 7 10 14 15 24 28 24 34 33 32 32 32 24 25 21 26 22 23 22 19 17 18 13 10 9 11 14 15 7 7 8 9 9 11 13 18 19 19 15 17
6 5 5 7 10 11 14 21 29 25 33 31 31 33 30 25 30 26 25 21 23 22 20 20 20 18 18 22 20 20 17 15 12 11 10 11 14 16 19 18 16 17 19
7 3 2 5 7 8 11 19 29 27 30 35 28 30 32 32 28 27 26 26 27 28 26 24 24 23 25 23 24 22 18 15 16 15 14 15 17 16 16 16 18 19 19
11 7 4 2 2 4 8 15 29 29 29 30 32 32 31 33 30 30 26 27 26 31 26 28 27 27 28 27 24 20 19 18 18 17 19 18 21 21 16 16 17 17 20
13 11 9 7 6 5 4 9 23 30 33 33 32 34 34 37 37 37 37 30 29 31 33 31 27 28 24 24 24 19 20 23 22 21 21 24 22 18 18 18 19 19 22
15 14 13 11 9 9 9 7 8 15 26 31 32 30 32 37 39 39 39 40 38 37 35 30 27 27 28 25 25 26 24 23 23 25 25 21 19 19 18 18 19 20 19
20 18 17 15 13 14 14 14 13 11 12 14 20 28 33 34 32 32 33 34 35 35 34 34 28 28 28 28 30 30 27 26 26 26 25 23 22 20 18 16 15 13 12
23 23 22 21 19 18 18 18 17 16 14 14 14 15 17 19 21 25 29 34 37 37 35 34 33 33 31 29 27 24 23 21 18 16 18 20 19 18 18 17 15 15 17
26 27 27 25 23 20 19 17 16 16 16 15 14 14 14 15 16 17 17 18 20 21 23 25 24 25 27 23 20 17 16 15 13 12 11 12 13 15 16 19 22 23 25
37 36 32 30 29 28 26 23 19 19 18 18 18 18 17 16 14 14 14 14 15 16 17 19 20 21 19 16 16 18 19 19 19 20 20 20 22 23 24 25 26 28 30
Wind_Direction
275 275 276 277 277 281 278 277 283 288 289 289 291 296 293 292 290 286 292 290 289 287 275 274 290 295 305 309 240 161 162 170 171 160 177 188 193 202 205 202 206 190 195
265 269 272 273 275 271 273 280 287 290 288 289 292 291 288 286 279 291 288 285 283 270 261 266 295 300 303 289 154 141 143 169 178 171 182 187 192 197 214 217 209 193 187
260 261 264 264 263 270 276 284 288 287 289 291 287 284 283 275 282 284 259 272 265 270 259 260 294 296 280 266 200 166 167 180 195 194 196 193 196 194 214 222 212 195 185
251 251 254 260 263 271 279 286 289 292 291 285 283 282 276 277 281 252 268 266 264 276 263 257 285 284 277 259 198 182 183 188 201 210 206 197 196 199 212 221 204 186 180
238 244 255 261 263 274 285 290 294 293 288 286 282 276 276 268 242 211 235 258 249 256 255 250 267 272 267 244 215 188 195 202 209 208 193 190 191 195 212 178 167 162 163
236 244 253 260 269 280 286 296 296 293 294 290 280 273 259 238 204 212 236 250 255 229 207 225 226 252 253 239 204 191 193 207 210 196 184 181 182 183 162 156 155 152 157
230 241 256 268 275 283 294 298 295 297 291 283 282 257 182 191 173 234 273 267 226 226 187 188 201 216 233 216 185 188 198 199 201 188 177 172 170 153 156 151 151 150 153
234 258 266 275 283 294 294 294 292 286 269 265 254 168 167 174 154 160 270 281 176 163 159 160 149 111 107 115 131 153 159 170 170 168 161 149 145 149 152 149 153 145 146
243 261 274 286 294 290 292 286 278 253 246 225 204 163 180 162 157 117 117 133 140 156 143 153 137 116 107 100 104 118 122 132 142 141 139 136 137 139 144 150 153 160 167
251 274 287 296 295 291 283 270 243 233 225 193 166 169 164 154 131 114 101 136 141 142 134 124 135 121 111 112 109 105 114 126 130 135 133 136 143 148 152 147 143 141 143
266 290 298 302 299 291 269 223 225 218 190 173 159 155 159 144 115 105 105 101 135 139 130 119 111 113 113 116 118 119 119 125 126 130 134 136 136 137 141 143 149 154 157
272 301 308 305 308 299 232 209 211 182 170 160 158 159 155 136 120 127 120 105 116 139 133 125 119 115 112 109 114 116 114 116 119 124 128 130 132 135 139 141 149 158 177
284 303 310 307 300 278 196 202 202 173 168 164 163 163 154 146 140 112 148 126 127 133 127 124 119 115 114 117 117 117 114 110 112 118 120 124 134 145 156 167 182 204 235
294 296 306 294 252 215 177 158 159 167 163 166 167 167 170 166 157 147 150 148 131 137 135 133 132 133 134 128 127 128 123 113 102 104 113 129 166 185 204 236 249 249 232
285 297 309 281 231 194 176 178 172 169 170 171 177 171 178 184 168 163 153 145 155 147 150 140 131 132 132 138 148 163 161 173 175 183 211 220 224 226 236 245 255 232 248
271 305 305 285 231 202 193 181 179 180 179 180 184 181 181 186 181 181 172 166 156 155 159 158 184 179 175 186 185 185 194 209 229 211 213 207 213 218 242 238 258 261 245
264 313 303 283 238 205 199 184 186 190 187 185 190 188 188 185 192 181 188 179 177 174 187 175 201 218 209 213 222 228 246 256 265 236 220 219 230 239 247 251 252 250 239
265 311 298 272 242 212 192 183 191 194 191 185 195 195 198 194 191 193 197 201 191 180 198 214 217 226 234 246 258 269 267 272 266 251 248 251 253 260 260 254 249 248 240
246 261 299 270 235 217 192 187 187 186 187 195 194 196 199 203 202 199 206 207 205 207 214 221 225 235 244 254 260 265 266 256 251 256 256 262 264 277 264 250 242 246 248
244 220 178 148 187 214 191 189 190 182 188 201 198 200 202 212 211 208 211 225 230 226 232 235 237 251 253 255 255 256 243 253 257 267 261 269 273 280 268 253 252 252 258
243 225 215 189 166 146 181 175 200 197 196 204 209 214 211 210 212 216 224 227 223 227 230 245 261 251 251 255 250 246 259 261 262 261 264 278 272 263 261 260 259 260 259
232 232 217 212 195 167 156 159 175 201 214 211 205 212 220 223 223 227 230 237 244 240 244 243 244 244 244 245 248 255 256 258 258 261 268 268 261 259 257 257 261 259 257
226 228 223 214 201 178 160 152 155 170 190 205 217 223 227 231 230 232 239 242 242 244 243 238 249 253 255 261 266 267 264 262 259 259 259 256 252 249 247 239 243 255 269
219 228 223 216 213 207 193 185 178 178 177 188 199 208 215 220 226 232 236 239 241 242 242 245 252 256 260 263 258 254 252 249 251 257 256 252 252 254 249 252 267 275 283
225 224 225 227 224 223 224 228 227 210 197 197 198 201 210 216 220 226 230 232 234 234 234 234 236 236 236 237 235 235 232 226 227 232 238 241 244 248 254 257 261 268 276
233 229 225 227 229 229 230 227 229 234 235 222 221 220 218 218 218 220 220 219 222 219 219 221 221 215 218 223 228 229 232 236 240 248 258 265 268 270 271 274 275 277 277
Height
10672 10671 10670 10668 10666 10664 10664 10662 10661 10657 10653 10649 10645 10641 10636 10632 10629 10626 10625 10621 10620 10618 10617 10614 10612 10608 10605 10601 10600 10600 10602 10607 10616 10621 10629 10634 10638 10641 10644 10645 10644 10649 10653
10662 10661 10660 10658 10658 10657 10655 10654 10652 10648 10644 10640 10636 10632 10628 10625 10623 10622 10620 10617 10616 10615 10613 10612 10610 10606 10604 10602 10602 10604 10608 10613 10617 10621 10624 10630 10634 10638 10640 10643 10644 10648 10652
10650 10651 10650 10651 10650 10649 10648 10647 10644 10640 10636 10631 10627 10625 10622 10620 10619 10618 10616 10616 10615 10613 10611 10610 10608 10604 10603 10602 10603 10605 10609 10613 10616 10619 10623 10628 10631 10635 10638 10640 10642 10646 10652
10641 10643 10644 10644 10643 10643 10642 10639 10635 10631 10626 10622 10620 10617 10616 10616 10615 10615 10614 10613 10612 10611 10609 10608 10606 10603 10601 10601 10603 10605 10607 10611 10612 10614 10620 10625 10630 10633 10636 10638 10641 10646 10652
10634 10636 10637 10637 10636 10636 10635 10631 10626 10622 10618 10616 10614 10612 10612 10612 10612 10612 10612 10610 10609 10608 10607 10605 10603 10600 10599 10597 10600 10604 10606 10607 10608 10612 10617 10624 10630 10634 10635 10637 10641 10646 10653
10628 10631 10631 10630 10631 10630 10627 10623 10617 10614 10612 10610 10609 10608 10609 10609 10610 10609 10607 10605 10605 10605 10605 10604 10603 10600 10597 10594 10594 10599 10603 10602 10607 10612 10618 10624 10630 10634 10637 10640 10646 10651 10657
10624 10625 10625 10625 10625 10623 10619 10614 10611 10609 10608 10606 10606 10605 10606 10607 10608 10608 10606 10604 10605 10604 10604 10604 10604 10601 10596 10593 10591 10594 10597 10603 10608 10613 10619 10626 10631 10636 10640 10645 10650 10656 10663
10620 10621 10621 10620 10618 10615 10611 10609 10606 10605 10605 10605 10604 10605 10606 10608 10610 10608 10607 10604 10603 10605 10606 10606 10605 10603 10599 10596 10594 10595 10598 10603 10608 10615 10623 10630 10635 10639 10645 10650 10657 10662 10668
10616 10617 10616 10614 10611 10608 10605 10604 10603 10603 10604 10604 10604 10606 10607 10609 10610 10609 10608 10606 10607 10608 10609 10609 10608 10608 10607 10604 10603 10603 10606 10609 10615 10621 10629 10635 10641 10645 10651 10656 10661 10666 10671
10613 10612 10611 10609 10604 10601 10600 10600 10601 10602 10602 10603 10605 10606 10609 10611 10612 10612 10611 10610 10611 10613 10615 10615 10615 10615 10615 10616 10617 10618 10620 10623 10628 10633 10637 10642 10646 10651 10656 10660 10666 10670 10674
10609 10608 10607 10603 10599 10597 10596 10597 10599 10600 10601 10603 10605 10609 10612 10615 10617 10617 10617 10616 10617 10619 10621 10622 10623 10624 10624 10626 10628 10630 10632 10635 10639 10643 10647 10650 10653 10656 10661 10666 10670 10674 10677
10605 10604 10603 10598 10595 10594 10595 10597 10598 10599 10602 10605 10608 10612 10615 10618 10620 10621 10622 10623 10623 10626 10628 10629 10630 10633 10634 10636 10639 10641 10644 10647 10650 10653 10656 10659 10662 10664 10667 10671 10674 10676 10679
10601 10601 10600 10596 10594 10594 10596 10597 10597 10600 10603 10607 10611 10615 10618 10621 10623 10625 10628 10630 10631 10634 10636 10638 10639 10641 10643 10645 10647 10649 10652 10655 10657 10660 10662 10665 10667 10669 10671 10673 10675 10676 10677
10598 10598 10597 10594 10594 10596 10598 10598 10600 10602 10606 10610 10613 10617 10621 10623 10625 10627 10631 10634 10637 10639 10641 10644 10645 10647 10650 10652 10653 10655 10657 10658 10660 10662 10664 10666 10668 10670 10672 10673 10674 10674 10675
10596 10596 10595 10593 10593 10596 10597 10599 10601 10604 10607 10611 10615 10619 10622 10625 10628 10632 10634 10636 10640 10643 10646 10647 10649 10651 10654 10656 10658 10659 10660 10661 10663 10664 10664 10665 10667 10669 10670 10671 10671 10671 10672
10594 10594 10593 10592 10592 10594 10595 10597 10599 10603 10607 10610 10614 10619 10623 10627 10631 10634 10636 10639 10642 10645 10648 10649 10651 10652 10654 10656 10657 10658 10660 10661 10661 10661 10663 10664 10665 10666 10667 10668 10668 10668 10668
10593 10593 10592 10591 10590 10591 10593 10595 10598 10602 10606 10610 10614 10619 10623 10627 10630 10633 10637 10639 10642 10645 10648 10650 10651 10653 10654 10656 10657 10659 10659 10659 10659 10659 10660 10661 10662 10663 10664 10664 10664 10664 10665
10591 10591 10591 10590 10590 10590 10590 10592 10596 10600 10604 10609 10614 10618 10622 10626 10630 10633 10636 10639 10642 10644 10647 10648 10650 10652 10652 10653 10654 10655 10656 10657 10657 10657 10658 10659 10659 10660 10660 10660 10660 10661 10661
10590 10590 10590 10590 10589 10589 10590 10591 10595 10598 10602 10607 10611 10616 10620 10623 10627 10630 10634 10636 10639 10642 10643 10645 10647 10648 10649 10649 10651 10652 10653 10653 10653 10654 10654 10655 10655 10655 10654 10654 10655 10655 10656
10589 10590 10590 10590 10589 10589 10590 10591 10593 10598 10602 10605 10609 10613 10617 10621 10624 10628 10631 10634 10637 10639 10640 10642 10643 10644 10645 10646 10647 10648 10649 10649 10649 10649 10649 10650 10650 10649 10649 10650 10651 10651 10651
10588 10590 10590 10590 10590 10590 10590 10591 10594 10597 10601 10604 10607 10610 10613 10616 10619 10621 10623 10626 10629 10632 10634 10636 10637 10639 10640 10641 10642 10644 10644 10644 10644 10644 10644 10644 10644 10644 10644 10644 10644 10644 10644
10586 10588 10589 10590 10590 10591 10591 10592 10594 10597 10600 10603 10605 10608 10611 10614 10617 10619 10621 10622 10624 10626 10629 10632 10633 10633 10634 10636 10637 10638 10639 10639 10639 10638 10638 10638 10637 10637 10637 10637 10637 10636 10636
10583 10586 10588 10589 10590 10591 10592 10593 10593 10596 10598 10601 10604 10606 10609 10611 10614 10616 10618 10619 10621 10622 10624 10626 10628 10630 10631 10632 10632 10632 10631 10631 10631 10631 10630 10630 10630 10630 10630 10630 10630 10631 10631
10579 10582 10584 10586 10589 10590 10591 10593 10594 10595 10599 10599 10601 10603 10604 10605 10607 10609 10609 10610 10611 10615 10617 10620 10622 10623 10625 10626 10624 10623 10623 10623 10624 10625 10625 10624 10624 10625 10625 10627 10627 10627 10627
10573 10577 10580 10583 10586 10588 10590 10591 10593 10594 10596 10597 10599 10600 10601 10602 10602 10604 10606 10607 10608 10609 10610 10611 10612 10612 10610 10615 10616 10617 10618 10619 10619 10619 10619 10619 10619 10619 10619 10620 10619 10619 10619
10566 10570 10574 10579 10581 10583 10585 10587 10589 10592 10593 10595 10596 10597 10598 10598 10599 10600 10602 10603 10603 10605 10606 10607 10608 10608 10610 10612 10613 10614 10614 10615 10614 10614 10613 10613 10613 10613 10613 10613 10612 10611 10610